Starlink 35929

operational
NORAD ID: 66625 Int'l Des: 2025-271 Owner: SPXS Country: US Constellation: starlink
LEOCIRCULAR

About Starlink 35929

Description loading...

Live Position

Loading 3D Globe...

Upcoming Passes

Altitude History

Altitude vs Time

uPlot chart will show altitude changes over time

Two-Line Element Set

1 66625U 25271J 26063.48833396 .00015492 00000-0 53361-3 0 9995
2 66625 53.1590 163.8577 0001353 52.6517 307.4607 15.30228324 16773
Epoch: Mar 4, 2026 • Age: 15 hours

Current Status

Altitude 477.4 km
Velocity 7.63 km/s
Sub-Earth Point 33.99°N, 81.11°W
Launch Date Nov 23, 2025
Age 0.2 years
Type internet

Technical Details

Classification Payload
Mass 575.00 kg
Dry Mass 530.00 kg
Total Mass 575.00 kg
Length 0.30 m
Diameter 4.10 m
Span 29.00 m
Shape Box + pan
Manufacturer SPXS
Bus Type Starlink V2MO
Phase Status In Orbit
Owner/State SPXS/US

Large Constellations

Loading constellations...